Torna al catalogo

SL-3 R/B

AttivoPO
NORAD 7575·ROCKET BODY·🇷🇺 Russia

Lanciato Dec 17, 1974 da Plesetsk Cosmodrome

Loading…

Prossimi Passaggi (prossime 24 ore)

TLE

AggiornatoSource: Space-Track

Epoca: Sep 14, 2026, 05:23 UTC

1 07575U 74099B   26257.22479965 -.00000096  00000-0 -59515-4 0  9995
2 07575  81.2419 261.6963 0050661  57.6195 302.9865 14.11589710662548

Traccia SL-3 R/B in tempo reale con AllMySat

Download on the App Store